TimeEDT,TemperatureF,Dew PointF,Humidity,Sea Level PressureIn,VisibilityMPH,Wind Direction,Wind SpeedMPH,Gust SpeedMPH,PrecipitationIn,Events,Conditions,WindDirDegrees,DateUTC
12:50 AM,35.6,35.6,100,-9999,0.0,NW,38.0,-,N/A,Fog,Fog,310,2013-09-16 04:50:00
1:47 AM,37.4,37.4,100,-9999,0.0,NW,34.5,-,N/A,Fog,Fog,310,2013-09-16 05:47:00
2:56 AM,35.6,35.6,100,-9999,0.0,WNW,36.8,42.6,N/A,Fog,Light Drizzle,290,2013-09-16 06:56:00
3:55 AM,35.6,35.6,100,-9999,0.0,WNW,40.3,-,N/A,Fog-Rain,Light Rain,290,2013-09-16 07:55:00
4:48 AM,35.6,35.6,100,-9999,0.0,WNW,38.0,-,N/A,Fog-Rain,Light Rain,290,2013-09-16 08:48:00
5:53 AM,33.8,33.8,100,-9999,0.0,WNW,47.2,54.1,N/A,Fog-Rain,Light Rain,290,2013-09-16 09:53:00
6:50 AM,33.8,33.8,100,-9999,0.0,WNW,48.3,56.4,N/A,Fog-Rain,Light Rain,290,2013-09-16 10:50:00
7:53 AM,33.8,33.8,100,-9999,0.0,WNW,51.8,56.4,N/A,Fog-Rain,Light Rain,290,2013-09-16 11:53:00
8:48 AM,33.8,33.8,100,-9999,0.0,WNW,38.0,-,N/A,Fog,Fog,300,2013-09-16 12:48:00
9:52 AM,33.8,33.8,100,-9999,0.0,WNW,43.7,-,N/A,Fog,Fog,300,2013-09-16 13:52:00
10:52 AM,35.6,35.6,100,-9999,0.0,WNW,42.6,52.9,N/A,Fog,Fog,300,2013-09-16 14:52:00
11:47 AM,33.8,33.8,100,-9999,0.0,NW,38.0,43.7,N/A,Fog-Rain,Light Rain Showers,310,2013-09-16 15:47:00
12:49 PM,32.0,32.0,100,-9999,0.0,NNW,36.8,49.5,N/A,Fog,Light Freezing Fog,330,2013-09-16 16:49:00
1:47 PM,30.2,30.2,100,-9999,0.1,NW,41.4,48.3,N/A,Fog,Light Freezing Fog,320,2013-09-16 17:47:00
2:49 PM,32.0,32.0,100,-9999,0.1,NW,46.0,-,N/A,Fog,Light Freezing Fog,320,2013-09-16 18:49:00
3:51 PM,26.6,26.6,100,-9999,0.1,NW,39.1,-,N/A,Fog,Light Freezing Fog,320,2013-09-16 19:51:00
4:52 PM,24.8,24.8,100,-9999,0.1,NW,39.1,46.0,N/A,Fog,Light Freezing Fog,320,2013-09-16 20:52:00
5:51 PM,23.0,23.0,100,-9999,0.1,NNW,36.8,40.3,N/A,Fog,Light Freezing Fog,330,2013-09-16 21:51:00
6:52 PM,23.0,23.0,100,-9999,0.1,NNW,40.3,48.3,N/A,Fog,Light Freezing Fog,330,2013-09-16 22:52:00
7:52 PM,21.2,21.2,100,-9999,0.1,NW,34.5,-,N/A,Fog,Light Freezing Fog,310,2013-09-16 23:52:00
8:58 PM,19.4,19.4,100,-9999,0.2,NW,34.5,42.6,N/A,Fog,Light Freezing Fog,320,2013-09-17 00:58:00
9:50 PM,19.4,19.4,100,-9999,0.2,NNW,32.2,42.6,N/A,Fog,Light Freezing Fog,340,2013-09-17 01:50:00
10:49 PM,21.2,21.2,100,-9999,0.2,North,40.3,50.6,N/A,Fog,Light Freezing Fog,360,2013-09-17 02:49:00
11:56 PM,21.2,15.8,80,-9999,0.5,NNE,32.2,50.6,N/A,,Overcast,30,2013-09-17 03:56:00